DW8945 Weather Reports


Display with metric or nautical units.
time (UTC)temp
F
wind
direction
speed
MPH
gust
MPH
rain 1hr
in
rain 24hr
in
rain mn
in
humidity
%
barometer
mb
20220808141853 88 291 3.0 7.0 0.00 0.18 0.00 68 1013.4
20220808141354 88 279 2.0 7.0 0.00 0.18 0.00 69 1013.4
20220808140855 88 202 3.0 8.0 0.00 0.18 0.00 70 1013.5
20220808140341 87 302 3.0 8.0 0.00 0.18 0.00 70 1013.4
20220808135853 87 296 2.0 7.0 0.00 0.18 0.00 71 1013.4
20220808135357 87 240 2.0 6.0 0.00 0.18 0.00 72 1013.6
20220808134901 86 294 3.0 9.0 0.00 0.18 0.00 72 1013.5
20220808134346 86 254 2.0 9.0 0.00 0.18 0.00 73 1013.7
20220808133849 86 281 3.0 9.0 0.00 0.18 0.00 73 1013.7
20220808133347 86 238 2.0 9.0 0.00 0.18 0.00 74 1013.7
20220808132853 85 269 2.0 5.0 0.00 0.18 0.00 75 1013.6
20220808132359 85 296 1.0 8.0 0.00 0.18 0.00 75 1013.7
20220808131844 85 268 3.0 9.0 0.00 0.18 0.00 75 1013.6
20220808131350 84 210 3.0 9.0 0.00 0.18 0.00 76 1013.7
20220808130840 84 288 2.0 6.0 0.00 0.18 0.00 78 1013.7
20220808130343 84 283 3.0 6.0 0.00 0.18 0.00 78 1013.8
20220808125856 83 287 2.0 7.0 0.00 0.18 0.00 79 1013.8
20220808125343 83 254 3.0 7.0 0.00 0.18 0.00 79 1013.9
20220808124848 83 253 1.0 8.0 0.00 0.18 0.00 81 1013.8
20220808124355 82 283 1.0 8.0 0.00 0.18 0.00 81 1013.9
20220808123843 82 142 2.0 8.0 0.00 0.18 0.00 82 1013.7
20220808123348 81 298 1.0 5.0 0.00 0.18 0.00 84 1013.7
20220808122854 80 306 2.0 5.0 0.00 0.18 0.00 85 1013.7
20220808122400 80 289 1.0 4.0 0.00 0.18 0.00 86 1013.8
20220808121845 79 298 2.0 4.0 0.00 0.18 0.00 86 1013.8
20220808121353 79 336 0.0 4.0 0.00 0.18 0.00 86 1013.9
20220808120857 79 281 2.0 7.0 0.00 0.18 0.00 86 1013.9
20220808120357 79 276 2.0 7.0 0.00 0.18 0.00 86 1014.0
20220808115848 79 294 1.0 5.0 0.00 0.18 0.00 87 1014.0
20220808115355 78 290 2.0 5.0 0.00 0.18 0.00 87 1014.0
20220808114840 78 271 1.0 4.0 0.00 0.18 0.00 87 1014.0
20220808114350 78 296 1.0 5.0 0.00 0.18 0.00 87 1014.1
20220808113857 78 286 2.0 5.0 0.00 0.18 0.00 88 1014.0
20220808113356 78 267 1.0 5.0 0.00 0.18 0.00 88 1014.0
20220808112844 78 304 1.0 5.0 0.00 0.18 0.00 88 1014.0
20220808112353 77 230 1.0 4.0 0.00 0.18 0.00 89 1013.9
20220808111900 77 284 1.0 2.0 0.00 0.18 0.00 89 1014.0
20220808111346 77 300 0.0 3.0 0.00 0.18 0.00 89 1014.0
20220808110855 77 304 1.0 3.0 0.00 0.18 0.00 89 1014.0
20220808110350 77 262 0.0 3.0 0.00 0.18 0.00 89 1014.1
20220808105845 77 258 0.0 3.0 0.00 0.18 0.00 89 1014.0
20220808105354 77 258 1.0 3.0 0.00 0.18 0.00 90 1014.0
20220808104859 77 298 0.0 2.0 0.00 0.18 0.00 90 1014.0
20220808104358 77 298 0.0 2.0 0.00 0.18 0.00 90 1014.0
20220808103847 77 298 0.0 3.0 0.00 0.18 0.00 90 1014.0
20220808103355 76 300 1.0 3.0 0.00 0.18 0.00 90 1014.0
20220808102844 76 300 0.0 3.0 0.00 0.18 0.00 90 1013.9
20220808102351 76 300 0.0 3.0 0.00 0.18 0.00 90 1013.9
20220808101856 76 301 0.0 1.0 0.00 0.18 0.00 90 1014.0
20220808101347 76 301 0.0 2.0 0.00 0.18 0.00 90 1013.9
20220808100852 76 301 0.0 2.0 0.00 0.18 0.00 90 1013.9
20220808100350 76 302 0.0 4.0 0.00 0.18 0.00 90 1013.8
20220808095842 76 304 0.0 2.0 0.00 0.18 0.00 90 1013.8
20220808095347 76 304 1.0 4.0 0.00 0.18 0.00 90 1013.8
20220808094850 76 304 0.0 4.0 0.00 0.18 0.00 90 1013.7
20220808094356 76 290 1.0 7.0 0.00 0.18 0.00 90 1013.8
20220808093901 76 290 1.0 7.0 0.00 0.18 0.00 90 1013.7
20220808093403 76 296 0.0 3.0 0.00 0.18 0.00 90 1013.7
20220808092847 76 296 0.0 3.0 0.00 0.18 0.00 90 1013.7
20220808092352 76 309 1.0 5.0 0.00 0.18 0.00 90 1013.7
20220808091856 76 309 0.0 5.0 0.00 0.18 0.00 90 1013.7
20220808091401 76 271 1.0 5.0 0.00 0.18 0.00 90 1013.7
20220808090848 76 233 1.0 3.0 0.00 0.18 0.00 90 1013.7
20220808090346 76 289 1.0 3.0 0.00 0.18 0.00 90 1013.7
20220808085859 76 292 0.0 5.0 0.00 0.18 0.00 90 1013.7
20220808085401 76 285 1.0 5.0 0.00 0.18 0.00 90 1013.6
20220808084844 76 287 1.0 4.0 0.00 0.18 0.00 90 1013.5
20220808084354 76 283 0.0 3.0 0.00 0.18 0.00 90 1013.5
20220808083900 76 283 1.0 3.0 0.00 0.18 0.00 90 1013.5
20220808083402 76 284 0.0 3.0 0.00 0.18 0.00 90 1013.5
20220808082904 76 284 0.0 3.0 0.00 0.18 0.00 90 1013.7
20220808082348 76 284 0.0 5.0 0.00 0.18 0.00 90 1013.7
20220808081853 76 300 1.0 5.0 0.00 0.18 0.00 90 1013.7
20220808081356 76 297 1.0 3.0 0.00 0.18 0.00 90 1013.7
20220808080843 76 287 0.0 4.0 0.00 0.18 0.00 90 1013.7
20220808080348 76 283 1.0 4.0 0.00 0.18 0.00 90 1013.7
20220808075900 76 263 0.0 5.0 0.00 0.18 0.00 90 1013.7
20220808075356 76 262 1.0 5.0 0.00 0.18 0.00 90 1013.7
20220808074841 76 233 0.0 3.0 0.00 0.18 0.00 90 1013.8
20220808074349 76 287 0.0 4.0 0.00 0.18 0.00 90 1013.8
20220808073856 76 290 1.0 4.0 0.00 0.18 0.00 90 1013.8
20220808073343 76 292 0.0 2.0 0.00 0.18 0.00 90 1013.9
20220808072852 76 292 0.0 3.0 0.00 0.18 0.00 90 1013.9
20220808072352 76 292 1.0 3.0 0.00 0.18 0.00 90 1014.0
20220808071857 76 286 0.0 3.0 0.00 0.18 0.00 90 1014.0
20220808071348 76 273 0.0 3.0 0.00 0.18 0.00 90 1014.0
20220808070857 76 273 0.0 2.0 0.00 0.18 0.00 90 1014.1
20220808070337 76 274 0.0 5.0 0.00 0.18 0.00 90 1014.0
20220808065851 76 258 0.0 5.0 0.00 0.18 0.00 90 1014.1
20220808065351 76 283 1.0 4.0 0.00 0.18 0.00 90 1014.0
20220808064859 76 304 1.0 4.0 0.00 0.18 0.00 90 1014.0
20220808064345 76 313 0.0 4.0 0.00 0.18 0.00 90 1014.0
20220808063851 76 301 0.0 4.0 0.00 0.18 0.00 90 1014.0
20220808063354 76 308 1.0 5.0 0.00 0.18 0.00 90 1014.1
20220808062841 76 272 1.0 5.0 0.00 0.18 0.00 90 1014.1
20220808062348 76 327 0.0 3.0 0.00 0.18 0.00 90 1014.1
20220808061857 76 265 0.0 3.0 0.00 0.18 0.00 90 1014.1
20220808061345 76 303 0.0 3.0 0.00 0.18 0.00 90 1014.1
20220808060853 76 259 0.0 2.0 0.00 0.18 0.00 90 1014.1
20220808060356 76 259 0.0 4.0 0.00 0.18 0.00 90 1014.1
20220808055850 77 250 0.0 4.0 0.00 0.18 0.00 90 1014.2
20220808055339 77 268 0.0 3.0 0.00 0.18 0.00 90 1014.2
20220808054847 77 265 1.0 3.0 0.00 0.18 0.00 90 1014.3
20220808054355 77 274 0.0 4.0 0.00 0.18 0.00 90 1014.3
20220808053844 77 265 0.0 2.0 0.00 0.18 0.00 90 1014.3
20220808053344 77 265 0.0 2.0 0.00 0.18 0.00 90 1014.4
20220808052849 77 264 0.0 6.0 0.00 0.18 0.00 91 1014.4
20220808052359 77 264 2.0 6.0 0.00 0.18 0.00 91 1014.5
20220808051841 77 271 0.0 4.0 0.00 0.18 0.00 91 1014.6
20220808051349 77 276 0.0 3.0 0.00 0.18 0.00 91 1014.6
20220808050841 77 274 0.0 2.0 0.00 0.18 0.00 91 1014.6
20220808050341 77 272 0.0 2.0 0.00 0.18 0.00 91 1014.6
20220808045850 77 272 1.0 2.0 0.00 0.18 0.00 91 1014.7
20220808045341 77 272 0.0 1.0 0.00 0.18 0.00 91 1014.7
20220808044844 77 272 0.0 5.0 0.00 0.18 0.00 91 1014.7
20220808044349 77 272 1.0 5.0 0.00 0.18 0.00 91 1014.8
20220808043855 77 273 0.0 5.0 0.00 0.18 0.00 91 1014.7
20220808043356 77 273 1.0 5.0 0.00 0.18 0.00 91 1014.7
20220808042859 77 288 1.0 3.0 0.00 0.18 0.00 91 1014.8
20220808042408 77 287 0.0 5.0 0.00 0.18 0.00 91 1014.7
20220808041849 77 289 1.0 5.0 0.00 0.18 0.00 91 1014.8
20220808041352 77 248 0.0 2.0 0.00 0.18 0.00 91 1014.9
20220808040857 77 248 0.0 2.0 0.00 0.18 0.00 92 1015.0
20220808040350 77 234 0.0 2.0 0.00 0.18 0.00 92 1014.9
20220808035901 77 284 0.0 4.0 0.00 0.18 0.18 92 1015.0
20220808035405 77 266 1.0 5.0 0.00 0.18 0.18 92 1015.1
20220808034847 77 267 2.0 5.0 0.00 0.18 0.18 92 1015.1
20220808034355 77 286 1.0 4.0 0.00 0.18 0.18 92 1015.1
20220808033857 77 288 0.0 3.0 0.00 0.18 0.18 92 1015.1
20220808033359 77 265 0.0 7.0 0.00 0.18 0.18 92 1015.0
20220808032845 77 271 2.0 7.0 0.00 0.18 0.18 92 1015.0
20220808032350 77 237 1.0 4.0 0.00 0.18 0.18 92 1014.9
20220808031854 77 224 1.0 4.0 0.00 0.18 0.18 92 1015.0
20220808031400 77 237 1.0 3.0 0.00 0.18 0.18 93 1015.0
20220808030900 77 236 1.0 4.0 0.00 0.18 0.18 93 1015.1
20220808030355 77 248 1.0 4.0 0.00 0.18 0.18 93 1015.0
20220808025849 77 287 1.0 2.0 0.00 0.18 0.18 93 1015.2
20220808025355 77 288 1.0 2.0 0.00 0.18 0.18 93 1015.2
20220808024900 77 290 1.0 5.0 0.00 0.18 0.18 93 1015.2
20220808024405 77 292 1.0 5.0 0.00 0.18 0.18 93 1015.3
20220808023849 77 272 0.0 2.0 0.00 0.18 0.18 93 1015.3
20220808023353 77 186 0.0 2.0 0.00 0.18 0.18 93 1015.2
20220808022855 77 186 0.0 2.0 0.00 0.18 0.18 93 1015.3
20220808022402 77 286 0.0 3.0 0.00 0.18 0.18 93 1015.3
20220808021848 77 286 1.0 4.0 0.00 0.18 0.18 93 1015.4
20220808021355 77 238 0.0 4.0 0.00 0.18 0.18 93 1015.2
20220808020846 77 267 0.0 4.0 0.00 0.18 0.18 93 1015.3
20220808020347 77 183 1.0 4.0 0.00 0.18 0.18 93 1015.3
20220808015900 77 288 0.0 4.0 0.00 0.18 0.18 93 1015.3
20220808015350 77 261 0.0 1.0 0.00 0.18 0.18 93 1015.3
20220808014856 77 261 0.0 0.0 0.00 0.18 0.18 93 1015.3
20220808014344 76 261 0.0 2.0 0.00 0.18 0.18 93 1015.4
20220808013852 76 261 1.0 2.0 0.00 0.18 0.18 93 1015.4
20220808013356 76 261 0.0 2.0 0.00 0.18 0.18 92 1015.5
20220808012844 76 272 0.0 2.0 0.00 0.18 0.18 92 1015.5
20220808012351 76 250 0.0 1.0 0.00 0.18 0.18 92 1015.5
20220808011855 76 248 0.0 3.0 0.00 0.18 0.18 92 1015.5
20220808011401 76 244 0.0 3.0 0.00 0.18 0.18 92 1015.5
20220808010849 76 239 0.0 2.0 0.00 0.18 0.18 92 1015.5
20220808010350 76 238 0.0 2.0 0.00 0.18 0.18 92 1015.5
20220808005855 76 237 0.0 2.0 0.00 0.18 0.18 91 1015.5
20220808005343 76 222 0.0 0.0 0.00 0.18 0.18 91 1015.5
20220808004848 76 222 0.0 1.0 0.00 0.18 0.18 91 1015.4
20220808004355 76 222 0.0 1.0 0.01 0.18 0.18 91 1015.4
20220808003902 76 222 0.0 1.0 0.01 0.18 0.18 91 1015.4
20220808003347 76 222 0.0 2.0 0.01 0.18 0.18 91 1015.4
20220808002854 76 222 0.0 2.0 0.02 0.18 0.18 90 1015.4
20220808002344 76 222 0.0 1.0 0.06 0.18 0.18 90 1015.3
20220808001859 76 222 0.0 0.0 0.14 0.18 0.18 90 1015.3
20220808001347 76 222 0.0 2.0 0.18 0.18 0.18 91 1015.2
20220808000845 76 223 0.0 6.0 0.18 0.18 0.18 90 1015.3
20220808000346 76 310 1.0 6.0 0.18 0.18 0.18 90 1015.3
20220807235900 76 236 3.0 8.0 0.18 0.18 0.18 90 1015.1
20220807235405 77 219 3.0 12.0 0.18 0.18 0.18 90 1015.4
20220807234845 77 300 4.0 12.0 0.18 0.18 0.18 89 1015.8
20220807234352 77 257 1.0 6.0 0.17 0.17 0.17 88 1015.9
20220807233859 77 319 1.0 5.0 0.17 0.17 0.17 86 1015.4
20220807233344 78 9 2.0 11.0 0.17 0.17 0.17 85 1015.4
20220807232854 78 293 2.0 11.0 0.16 0.16 0.16 83 1015.4
20220807232400 80 91 4.0 15.0 0.12 0.12 0.12 80 1015.4
20220807231844 83 304 7.0 23.0 0.01 0.01 0.02 72 1015.4
20220807231353 88 282 9.0 23.0 0.00 0.00 0.00 65 1015.1
20220807230846 90 229 3.0 11.0 0.00 0.00 0.00 61 1014.5
20220807230341 91 342 2.0 9.0 0.00 0.00 0.00 60 1014.2
20220807225850 91 299 4.0 11.0 0.00 0.00 0.00 60 1014.1
20220807225354 91 317 6.0 12.0 0.00 0.00 0.00 59 1013.9
20220807224901 92 265 4.0 8.0 0.00 0.00 0.00 58 1013.9
20220807224350 92 261 3.0 12.0 0.00 0.00 0.00 57 1014.0
20220807223854 93 233 4.0 9.0 0.00 0.00 0.00 56 1013.9
20220807223354 93 231 3.0 12.0 0.00 0.00 0.00 55 1013.8
20220807222857 94 232 5.0 12.0 0.00 0.00 0.00 54 1013.8
20220807222401 94 277 3.0 7.0 0.00 0.00 0.00 53 1013.8
20220807221844 95 288 1.0 12.0 0.00 0.00 0.00 52 1013.8
20220807221350 95 309 4.0 12.0 0.00 0.00 0.00 52 1013.7
20220807220855 95 259 2.0 7.0 0.00 0.00 0.00 51 1013.8
20220807220359 95 289 3.0 7.0 0.00 0.00 0.00 51 1013.7
20220807215853 95 286 3.0 10.0 0.00 0.00 0.00 50 1013.8
20220807215359 96 266 5.0 10.0 0.00 0.00 0.00 49 1013.8
20220807214845 96 336 2.0 14.0 0.00 0.00 0.00 48 1013.9
20220807214349 96 329 6.0 14.0 0.00 0.00 0.00 48 1013.9
20220807213854 96 271 2.0 8.0 0.00 0.00 0.00 50 1013.8
20220807213354 96 311 4.0 11.0 0.00 0.00 0.00 49 1013.8
20220807212905 96 284 2.0 6.0 0.00 0.00 0.00 50 1013.8
20220807212352 95 327 2.0 9.0 0.00 0.00 0.00 50 1013.8
20220807211852 95 238 4.0 10.0 0.00 0.00 0.00 51 1013.8
20220807211356 94 244 2.0 11.0 0.00 0.00 0.00 51 1013.8
20220807210903 94 248 5.0 11.0 0.00 0.00 0.00 51 1013.9
20220807210340 94 309 3.0 8.0 0.00 0.00 0.00 51 1013.8
20220807205854 94 249 2.0 11.0 0.00 0.00 0.00 51 1013.8
20220807205403 95 236 4.0 11.0 0.00 0.00 0.00 50 1013.8
20220807204904 95 281 4.0 11.0 0.00 0.00 0.00 50 1013.8
20220807204348 96 299 2.0 9.0 0.00 0.00 0.00 49 1013.8
20220807203854 96 248 5.0 9.0 0.00 0.00 0.00 49 1013.7
20220807203356 96 316 3.0 10.0 0.00 0.00 0.00 49 1013.8
20220807202859 96 264 4.0 11.0 0.00 0.00 0.00 48 1013.8
20220807202405 96 271 4.0 11.0 0.00 0.00 0.00 49 1013.8
20220807201843 96 11 3.0 11.0 0.00 0.00 0.00 49 1013.8
20220807201350 96 261 4.0 14.0 0.00 0.00 0.00 48 1013.9
20220807200900 97 277 6.0 14.0 0.00 0.00 0.00 48 1013.9
20220807200400 97 302 4.0 13.0 0.00 0.00 0.00 47 1014.0
20220807195851 97 260 3.0 13.0 0.00 0.00 0.00 47 1014.1
20220807195400 97 248 4.0 10.0 0.00 0.00 0.00 47 1014.3
20220807194845 97 281 3.0 13.0 0.00 0.00 0.00 48 1014.3
20220807194356 97 257 4.0 10.0 0.00 0.00 0.00 47 1014.4
20220807193900 97 348 5.0 12.0 0.00 0.00 0.00 47 1014.4
20220807193354 97 273 4.0 13.0 0.00 0.00 0.00 47 1014.4
20220807192859 96 239 5.0 14.0 0.00 0.00 0.00 48 1014.5
20220807192404 96 248 4.0 14.0 0.00 0.00 0.00 48 1014.6
20220807191903 97 207 4.0 12.0 0.00 0.00 0.00 48 1014.6
20220807191351 97 308 5.0 12.0 0.00 0.00 0.00 47 1014.7
20220807190859 97 319 6.0 13.0 0.00 0.00 0.00 47 1014.6
20220807190352 97 254 5.0 13.0 0.00 0.00 0.00 48 1014.6
20220807185904 96 301 4.0 15.0 0.00 0.00 0.00 49 1014.7
20220807185350 96 317 5.0 15.0 0.00 0.00 0.00 49 1014.8
20220807184849 96 303 4.0 13.0 0.00 0.00 0.00 49 1014.9
20220807184359 96 231 6.0 12.0 0.00 0.00 0.00 49 1014.9
20220807183842 96 335 5.0 14.0 0.00 0.00 0.00 48 1015.0
20220807183348 95 330 5.0 13.0 0.00 0.00 0.00 49 1015.0
20220807182855 95 251 2.0 17.0 0.00 0.00 0.00 51 1015.0
20220807182401 95 306 6.0 17.0 0.00 0.00 0.00 50 1015.1
20220807181904 95 252 6.0 15.0 0.00 0.00 0.00 51 1015.1
20220807181347 95 257 5.0 13.0 0.00 0.00 0.00 51 1015.4
20220807180854 95 344 5.0 13.0 0.00 0.00 0.00 52 1015.3
20220807180353 95 246 3.0 12.0 0.00 0.00 0.00 52 1015.5
20220807175849 95 290 3.0 14.0 0.00 0.00 0.00 52 1015.6
20220807175356 95 234 4.0 14.0 0.00 0.00 0.00 52 1015.8
20220807174901 95 265 4.0 11.0 0.00 0.00 0.00 51 1015.8
20220807174348 95 315 3.0 12.0 0.00 0.00 0.00 52 1015.9
20220807173857 95 266 3.0 12.0 0.00 0.00 0.00 53 1015.9
20220807173344 95 286 4.0 13.0 0.00 0.00 0.00 51 1016.0
20220807172852 95 233 4.0 13.0 0.00 0.00 0.00 52 1016.2
20220807172401 95 279 5.0 13.0 0.00 0.00 0.00 53 1016.1
20220807171846 94 289 4.0 14.0 0.00 0.00 0.00 54 1016.1
20220807171353 94 275 6.0 14.0 0.00 0.00 0.00 53 1016.2
20220807170901 94 329 5.0 14.0 0.00 0.00 0.00 54 1016.2
20220807170342 94 271 7.0 12.0 0.00 0.00 0.00 53 1016.3
20220807165854 94 263 5.0 11.0 0.00 0.00 0.00 54 1016.3
20220807165402 94 244 4.0 9.0 0.00 0.00 0.00 54 1016.4
20220807164842 94 258 4.0 10.0 0.00 0.00 0.00 55 1016.3
20220807164351 94 240 4.0 11.0 0.00 0.00 0.00 55 1016.6
20220807163859 93 293 3.0 11.0 0.00 0.00 0.00 55 1016.6
20220807163344 93 241 3.0 10.0 0.00 0.00 0.00 57 1016.6
20220807162851 92 323 3.0 10.0 0.00 0.00 0.00 56 1016.7
20220807162400 93 268 5.0 11.0 0.00 0.00 0.00 56 1016.8
20220807161844 93 264 5.0 10.0 0.00 0.00 0.00 56 1016.9
20220807161347 93 261 4.0 13.0 0.00 0.00 0.00 55 1016.9
20220807160849 92 251 3.0 13.0 0.00 0.00 0.00 57 1016.9
20220807160345 92 302 2.0 13.0 0.00 0.00 0.00 58 1017.0
20220807155850 92 239 5.0 13.0 0.00 0.00 0.00 58 1017.1
20220807155358 91 291 3.0 12.0 0.00 0.00 0.00 58 1017.2
20220807154902 92 265 6.0 12.0 0.00 0.00 0.00 58 1017.2
20220807154349 92 257 6.0 10.0 0.00 0.00 0.00 58 1017.4
20220807153856 92 312 5.0 14.0 0.00 0.00 0.00 58 1017.4
20220807153400 92 264 4.0 14.0 0.00 0.00 0.00 59 1017.5
20220807152847 91 53 3.0 12.0 0.00 0.00 0.00 59 1017.7
20220807152356 91 246 5.0 14.0 0.00 0.00 0.00 60 1017.8
20220807151858 91 312 3.0 14.0 0.00 0.00 0.00 61 1017.9
20220807151346 91 315 4.0 8.0 0.00 0.00 0.00 62 1018.0
20220807150856 91 257 4.0 14.0 0.00 0.00 0.00 63 1018.2
20220807150356 91 263 3.0 14.0 0.00 0.00 0.00 63 1018.3
20220807145849 91 311 2.0 11.0 0.00 0.00 0.00 62 1018.4
20220807145358 91 271 4.0 11.0 0.00 0.00 0.00 62 1018.5
20220807144841 90 272 4.0 9.0 0.00 0.00 0.00 64 1018.4
20220807144348 89 267 3.0 9.0 0.00 0.00 0.00 66 1018.6
20220807143854 89 238 4.0 12.0 0.00 0.00 0.00 66 1018.6
20220807143344 89 304 5.0 12.0 0.00 0.00 0.00 65 1018.7
20220807142848 89 286 5.0 9.0 0.00 0.00 0.00 66 1018.7
20220807142356 89 252 4.0 9.0 0.00 0.00 0.00 66 1018.6